Location: Hawaiian Village Mobile Home Park
(32.8359°N, 116.9792°W)
Time: 18:44:36
(UTC+00:00)

ADEOS - Pass Details

Date: 04 December 2021
Orbit: 792 x 795 km, 98.9° (Epoch: 27 January)

Event Time Altitude Azimuth Distance (km) Brightness Sun altitude
Rises 12:50:50 0° 19° (NNE) 3,300 6.9 -21.4°
Reaches altitude 10° 12:53:14 10° 25° (NNE) 2,366 6.2 -20.9°
Maximum altitude 12:58:18 50° 101° (E) 1,000 4.5 -19.9°
Drops below altitude 10° 13:03:20 10° 176° (S) 2,350 6.2 -18.9°
Sets 13:05:43 0° 181° (S) 3,276 6.9 -18.4°
